Airfield :
LOGIN :

Register | Disclaimer

   EN    FR    IT 

 










Legend :    VFR   Marginal VFR   IFR   Intensive IFR   Very Intensive IFR
Visi :
Ceiling :
>= 8 km
>= 3000ft
5 to 8 km
1000 to 3000 ft
1500m to 5 km
500 to 1000 ft
800 to 1500m
200 to 500 ft
< 800m
< 200 ft
Symbols :   Thunderstorms  Fog  Heavy snow  Heavy precipitations  Wind > 20 kt
SIGMETs :     Misc.  Thunderstorms  Icing  Turbulence  Mountain Waves  Volcanic Ashes






- Airport Elevation : 62 ft
- IATA code : TAN


GMTT - Tanger Ibn Batouta

CURRENT METAR :
  • 230230Z 07011KT CAVOK 17/12 Q1012 NOSIG

EXPIRED METARs :
  • 230200Z 05007KT CAVOK 17/13 Q1012 NOSIG
  • 230130Z 04009KT CAVOK 17/13 Q1013 NOSIG
  • 230100Z 05007KT CAVOK 16/13 Q1013 NOSIG
  • 230030Z 05005KT 360V070 CAVOK 15/11 Q1013 NOSIG
  • 230000Z 08003KT 050V160 CAVOK 15/11 Q1014 NOSIG

TAF TAF GMTT
Valid from the 23 at 00:00 until the 24 at 06:00 UTC


222300Z 2300/2406 03004KT CAVOK
BECMG 2303/2307 08015KT
TEMPO 2315/2404 08020G32KT



MET'MAP, your aeronautical weather chart ! - Copyright ORBIFLY December 2007 - Disclaimer

ORBIFLY MET'MAP TEAM :

Programming & Development : Alexandra Zaïnal
Concept & original design : Baudouin d'Aumeries
Assistance for programming : Marc-Olivier Méhu
Technical & hardware support : Manuel Goepfert

Contact : metmap@orbifly.com




SOURCES & CREDITS :

   NOAA